Weather in Khovaling

Tajikistan     38°20′37″N   69°58′21″E
temp.,
°C
wind,
m/s
gust,
m/s
humid.,
%
clouds,
%
prec.,
mm/h
press.,
hPa
HPBL,
m
22 october, fri
fri2223:00+9ssw3740100 0.0 1024613
02:00+6ssw4676100 0.5 10241074
05:00+5s3795100 6.0 1025909
08:00+3ssw4997100 6.6 1029618
11:00+3ssw4780100 7.9 1033825
14:00+5sw246311 0.6 1032889
17:00+5n114897 0.6 103259
20:00+2ne34675 0.0 103467
23 october, sat
sat2323:00+1ene33630 0.0 103447
02:00+1ene22580 0.0 103225
05:000ene22560 0.0 103122
08:00+3e22480 0.0 103088
11:00+9wsw11320 0.0 1026782
14:00+11wsw22260 0.0 10231278
17:00+9wsw11340 0.0 102312
20:00+5e22460 0.0 102418
24 october, sun
sun2423:00+4e22390 0.0 102519
02:00+4e32380 0.0 102419
05:00+3e32390 0.0 102323
08:00+5ene33340 0.0 102283
11:00+13ne12180 0.0 1018677
14:00+16nnw11150 0.0 10151210
17:00+13ne11240 0.0 101513
20:00+8ene33260 0.0 101734
25 october, mon
mon2523:00+7ene33270 0.0 101729
02:00+7ene43290 0.0 101630
05:00+6ene33290 0.0 101728
08:00+8e32280 0.0 101858
11:00+15sw11150 0.0 1016676
14:00+17sw22130 0.0 10141328
17:00+14sw221912 0.0 101611
20:00+11ene2227100 0.0 101714
26 october, tue
tue2623:00+9e222994 0.0 101715
02:00+9e2229100 0.0 101715
05:00+9e1130100 0.0 101713
08:00+10e1129100 0.0 101827
11:00+14wsw221969 0.0 1018825
14:00+16wsw32175 0.0 10171283
17:00+13sw22235 0.0 101712
20:00+10ene22290 0.0 102012